219P/LINEAR (2017)

Japanese version
Home page
Updated on November 13, 2016

---------------------------------------------------------------------

* Profile

* Pictures

* Orbital Elements

Epoch 2017 Feb. 16.0 TT = JDT 2457800.5
T 2017 Feb. 20.61927 TT                                 MPCW
q   2.3652331            (2000.0)            P               Q
n   0.14118210     Peri.  107.40996     +0.91503570     +0.37224815
a   3.6527193      Node   231.02512     -0.40197296     +0.87356291
e   0.3524733      Incl.   11.52864     +0.03357688     +0.31355885
P   6.98
From 519 observations 2002 June 5-2016 May 15, mean residual 0".7.
     Nongravitational parameters A1 = -1.63, A2 = -0.0974.

* Finding Charts

* Magnitudes Graph

        m1 = 7.3 + 5 log d + 20 log r(t + 70)

---------------------------------------------------------------------

The orbital elements are published on M.P.E.C. 2016-K18.
The charts are made with StellaNavigator Ver.8 (AstroArts).
The magnitudes graphs are made with Comet for Windows.

---------------------------------------------------------------------

Copyright(C) Seiichi Yoshida (comet@aerith.net). All rights reserved.